Regional Weather Roundup
Issued by NWS

Home | Current Version | Previous Version | Graphics & Text | Print | Product List | Glossary On
Versions: 1 2 3 4 5 6 7 8 9 10 11 12 13 14 15 16 17 18 19 20 21 22 23 24 25 26 27 28 29 30 31 32 33 34 35 36 37 38 39 40 41 42 43 44 45 46 47 48 49 50
000
ASUS43 KOAX 231310
RWRNE

WEATHER ROUNDUP FOR NEBRASKA
NATIONAL WEATHER SERVICE OMAHA NE
800 AM CDT THU MAR 23 2017

NOTES: SATELLITE DATA IS BEING USED TO AUGMENT CLOUD COVER ABOVE
       12000 FEET.
       "FAIR" INDICATES FEW OR NO CLOUDS BELOW 12,000 FEET WITH NO
       SIGNIFICANT WEATHER AND/OR OBSTRUCTIONS TO VISIBILITY.

  * THESE STATIONS DO NOT REPORT WEATHER SUCH AS RAIN...SNOW OR FOG.

NEZ001>004-019>022-054>056-231400-
NEBRASKA PANHANDLE

CITY           SKY/WX    TMP DP  RH WIND       PRES   REMARKS
SCOTTSBLUFF    CLOUDY    34  30  85 E8        29.69S WCI  27
ALLIANCE       CLOUDY    37  35  92 S10       29.68F WCI  30
CHADRON        CLOUDY    38  33  82 CALM      29.66F
KIMBALL        CLOUDY    32  32 100 W6        29.69F WCI  27
SIDNEY         CLOUDY    32  31  96 NW7       29.71R FOG     WCI  26
$$

NEZ057>060-069>072-079>082-231400-
SOUTHWEST NEBRASKA

CITY           SKY/WX    TMP DP  RH WIND       PRES   REMARKS
NORTH PLATTE   CLOUDY    46  42  86 SE9       29.76S
IMPERIAL       CLOUDY    41  39  93 SE10      29.70F FOG
LEXINGTON      CLOUDY    46  43  89 SE14      29.78F FOG
MCCOOK         FOG       48  48 100 SE13      29.74F VSB 1
OGALLALA       CLOUDY    43  40  88 SE8       29.71F
$$

NEZ005>010-023>029-035>040-094-231400-
NORTH CENTRAL NEBRASKA

CITY           SKY/WX    TMP DP  RH WIND       PRES   REMARKS
VALENTINE      CLOUDY    45  35  68 S10       29.74S
AINSWORTH      CLOUDY    44  36  73 S14       29.76S
BROKEN BOW     CLOUDY    46  32  58 S16G24    29.78S
O`NEILL        CLOUDY    46  33  60 S22G28    29.80F
ORD            CLOUDY    47  35  63 S20G32    29.81F
THEDFORD       CLOUDY    45  38  78 S16       29.75F
$$

NEZ041-046>049-061>064-073>077-083>087-231400-
SOUTH CENTRAL NEBRASKA

CITY           SKY/WX    TMP DP  RH WIND       PRES   REMARKS
GRAND ISLAND   CLOUDY    48  41  76 SE20G30   29.86F
AURORA         CLOUDY    49  40  73 SE22G29   29.87F
HASTINGS       CLOUDY    48  44  86 SE18G25   29.85F FOG
HEBRON         CLOUDY    49  43  80 SE17G23   29.91F
HOLDREGE       CLOUDY    47  44  91 SE15      29.80F FOG
KEARNEY *      CLOUDY    48  43  81 SE22      29.82F
YORK           CLOUDY    48  43  81 S21G26    29.89F
$$

NEZ011>018-030>034-042>045-231400-
NORTHEAST NEBRASKA

CITY           SKY/WX    TMP DP  RH WIND       PRES   REMARKS
NORFOLK        CLOUDY    43  27  53 SE14      29.88F
ALBION         CLOUDY    46  29  51 SE17      29.86F
BLAIR          CLOUDY    46  29  50 SE17G23   29.97F
FREMONT        CLOUDY    46  28  50 SE14      29.95F
TEKAMAH        MOCLDY    44  25  47 SE16      29.97F
WAYNE          CLOUDY    42  27  55 SE16      29.91F
$$

NEZ050>053-065>068-078-088>093-231400-
SOUTHEAST NEBRASKA

CITY           SKY/WX    TMP DP  RH WIND       PRES   REMARKS
LINCOLN        CLOUDY    50  41  71 S18       29.97S
OMAHA EPPLEY   CLOUDY    47  27  45 SE20      29.99F
BEATRICE       CLOUDY    50  41  69 SE12G17   29.95F
FALLS CITY     CLOUDY    49  32  52 SE15G22   30.02F
NEBRASKA CITY  CLOUDY    47  29  49 SE14G20   30.01S
PLATTSMOUTH    CLOUDY    47  28  47 SE17      29.99F
$$

NEZ044-045-051>053-067-231400-
OMAHA AREA

CITY           SKY/WX    TMP DP  RH WIND       PRES   REMARKS
OMAHA EPPLEY   CLOUDY    47  27  45 SE20      29.99F
BLAIR          CLOUDY    46  29  50 SE17G23   29.97F
FREMONT        CLOUDY    46  28  50 SE14      29.95F
MILLARD        CLOUDY    49  32  52 SE12G20   29.98F
OFFUTT AFB     CLOUDY    47  29  48 SE16      29.99F
PLATTSMOUTH    CLOUDY    47  28  47 SE17      29.99F
WAHOO          CLOUDY    46  29  49 SE16      29.95F
$$



USA.gov is the U.S. government's official web portal to all federal, state and local government web resources and services.